Regional Weather Roundup
Issued by NWS

Home | Current Version | Previous Version | Text Only | Print | Product List | Glossary Off
Versions: 1 2 3 4 5 6 7 8 9 10 11 12 13 14 15 16 17 18 19 20 21 22 23 24 25 26 27 28 29 30 31 32 33 34 35 36 37 38 39 40 41 42 43 44 45 46 47 48 49 50

000
ASUS45 KTFX 021904
RWRMT
MONTANA HOURLY WEATHER ROUNDUP
NATIONAL WEATHER SERVICE GREAT FALLS MT
1204 PM MST MON MAR 2 2015

NOTE: "FAIR" INDICATES FEW OR NO CLOUDS BELOW 12000 FEET WITH NO
SIGNIFICANT WEATHER AND/OR OBSTRUCTIONS TO VISIBILITY.

* THESE STATIONS ARE NOT UNDER NWS QUALITY CONTROL. THEY DO NOT
   REPORT WEATHER SUCH AS PRECIPITATION OR FOG.

MTZ001>007-043-022000-
WEST OF THE DIVIDE
CITY           SKY/WX    TMP DP  RH WIND       PRES   REMARKS
KALISPELL      CLOUDY    30  21  69 N15       29.90S WCI  19
MISSOULA       CLOUDY    30  12  47 CALM      29.87F
BUTTE          HAZE      34   9  35 VRB3      29.77F VSB 3/4
MULLAN PASS    CLOUDY    25  10  53 VRB5      29.75S WCI  19
* ANACONDA     PTSUNNY   27  10  49 NE3        N/A
* ESSEX        N/A       22  18  85 E2         N/A
* LINCOLN      N/A       28  12  51 E1         N/A
* LOOKOUT PASS N/A       30   9  41 S6         N/A   WCI  24
* POLSON       N/A       31  19  61 N1         N/A
* RONAN APT    CLOUDY    32  21  64 N/A        N/A
* SEELEY LAKE  N/A       29   8  41 S2         N/A
* THOMP F APT  CLOUDY    34   7  32 S7         N/A   WCI  28
$$

MTZ008-052>055-022000-
SOUTHWEST MONTANA
CITY           SKY/WX    TMP DP  RH WIND       PRES   REMARKS
BOZEMAN        SUNNY     34   7  32 W3        29.80F
DILLON         SUNNY     36   1  22 NE3       29.76F
* W YELLOWSTON SUNNY     24   4  42 W2         N/A
* THREE FORKS  SUNNY     36  12  37 VRB5       N/A   WCI  32
* BOULDER HILL N/A       28   5  37 N11        N/A   WCI  18
* MONIDA PASS  N/A       33   0  24 NE6        N/A   WCI  27
* RAYNOLDS PAS N/A       27  17  66 SW5        N/A   WCI  21
* WHITEHALL    N/A       36   8  31 SE4        N/A
* WISE RIVER   N/A       27   6  41 NW3        N/A
$$

MTZ009>010-012-014-046-048-049-054-022000-
EAST SLOPES AND CENTRAL MONTANA
CITY           SKY/WX    TMP DP  RH WIND       PRES   REMARKS
CUT BANK       LGT SNOW  25  19  78 N30G39    29.93R WCI   8
HELENA         CLOUDY    34  10  37 NW7       29.85F WCI  28
MALMSTROM AFB  LGT SNOW  30  23  75 N13       29.91R WCI  20
* DEARBORN     N/A       31  24  75 VRB11G18    N/A   WCI  22
* EAST GLACIER N/A       20  16  84 NE24G33    N/A   WCI   3
* MONARCH      N/A       23  18  81 NW14       N/A   WCI  10
* PENDROY      N/A       24  23  96 NE18G24    N/A   WCI  10
* ROGERS PASS  N/A       23  19  85 S2G7       N/A
* SWEET GRASS  N/A       23  21  92 N29G38     N/A   WCI   6
$$

MTZ011-013-016-021-035-040-045-047-050-051-022000-
NORTH CENTRAL MONTANA
CITY           SKY/WX    TMP DP  RH WIND       PRES   REMARKS
HAVRE          CLOUDY    32  18  56 NW21G26   29.90R WCI  20
LEWISTOWN      CLOUDY    30  21  69 NW10G23   29.84R WCI  21
* N BAR RANCH  SUNNY     32  16  52 W10G23    29.79R WCI  24
* CHESTER      N/A       29  19  66 N14G27     N/A   WCI  18
* DENTON       N/A       29  18  63 NW20G27    N/A   WCI  16
* GEYSER       N/A       28  20  72 W20        N/A   WCI  15
* JUDITH GAP   N/A       29  17  61 N21G28     N/A   WCI  16
* LOMA         N/A       31  21  66 NW18G26    N/A   WCI  19
$$

MTZ017>020-022>027-061-062-022000-
NORTHEAST MONTANA
CITY           SKY/WX    TMP DP  RH WIND       PRES   REMARKS
GLASGOW        PTCLDY    37  16  42 W15G23    29.76F WCI  28
GLENDIVE       SUNNY     37  14  39 SW17      29.80S WCI  27
SIDNEY         SUNNY     36  12  37 S12       29.82S WCI  28
WOLF POINT     PTCLDY    36  12  37 W12       29.78F WCI  28
* BEAVER HILL  N/A       35  15  44 SW27G32    N/A   WCI  22
* CIRCLE       N/A       38  19  46 W12G17     N/A   WCI  30
* LINDSAY DVD  N/A       36  14  40 SW16G24    N/A   WCI  26
* NAVAJO       N/A       30  15  54 SW19G24    N/A   WCI  18
* SACO         N/A       38  16  41 W16G27     N/A   WCI  29
$$

MTZ028>042-056>058-022000-
SOUTHCENTRAL AND SOUTHEAST MONTANA
CITY           SKY/WX    TMP DP  RH WIND       PRES   REMARKS
BILLINGS       SUNNY     45  10  24 W15       29.80F
LIVINGSTON     SUNNY     37   7  28 NW12      29.76F WCI  29
MILES CITY     SUNNY     39  16  39 W15       29.80F WCI  31
* LAUREL APT   SUNNY     43  12  28 SW10G16    N/A
* ROUNDUP APT  PTCLDY    45   9  23 N7         N/A
* ALZADA       N/A       42  21  43 SW8        N/A
* HYSHAM       N/A       37  10  33 W9G15      N/A   WCI  30
* LAME DEER    N/A       39   8  27 SW9G14     N/A   WCI  33
* REED POINT   N/A       41  16  36 NE7        N/A
$$

REGIONAL REPORTS...DAKOTAS
CITY           SKY/WX    TMP DP  RH WIND       PRES   REMARKS
WILLISTON      PTCLDY    34  14  44 SW16G22   29.78F WCI  24
DICKINSON      SUNNY     37  16  42 SW16      29.78F WCI  28
BEACH          SUNNY     34  18  52 SW20      29.78F WCI  23
CROSBY         SUNNY     28  16  61 S18G25    29.75F WCI  15
WATFORD CITY   SUNNY     32  16  52 SW9       29.76F WCI  24
BISMARCK       SUNNY     34  18  52 S22       29.91F WCI  22
GRAND FORKS    PTCLDY    23  12  63 S18G26    30.16F WCI   9
FARGO          SUNNY     30   9  41 S23G29    30.19F WCI  17
BUFFALO SD     PTCLDY    39  18  43 SW12      29.74F WCI  32
RAPID CITY     PTSUNNY   45  23  42 S20G28    29.79F
$$

REGIONAL REPORTS...WYOMING/IDAHO/WASHINGTON
CITY           SKY/WX    TMP DP  RH WIND       PRES   REMARKS
GILLETTE       PTCLDY    39  18  43 VRB6      29.78F WCI  35
SHERIDAN       PTSUNNY   34  14  44 S3        29.78F
CODY           PTCLDY    36  19  50 NE10      29.74F WCI  29
YELLOWSTONE LA PTCLDY    23   9  55 VRB5      29.76F WCI  16
SALMON         SUNNY     34   9  35 CALM      29.80F
MULLAN PASS    CLOUDY    25  10  53 VRB5      29.75S WCI  19
SAND POINT     CLOUDY    36  21  54 NE5       29.91F WCI  32
SPOKANE        CLOUDY    36  23  59 NE10      29.90S WCI  29
$$

REGIONAL REPORTS...ALBERTA
CITY           SKY/WX    TMP DP  RH WIND       PRES   REMARKS
LETHBRIDGE     LGT SNOW  25  18  75 N22G29    30.03R VSB 1    WCI  10
$$

REGIONAL REPORTS...SASKATCHEWAN
CITY           SKY/WX    TMP DP  RH WIND       PRES   REMARKS
SWIFT CURRENT  LGT SNOW  18  16  92 NW30G36   29.79R VSB 1 3/4 WCI  -1

$$




USA.gov is the U.S. government's official web portal to all federal, state and local government web resources and services.